User: anonymous   Login
Location: Unspecified
(0.0000°N, 0.0000°E)
Time: 20:04:32
(UTC+00:00)
Language:

DELFI-N3XT - Orbit

View from above orbital plane
View from above orbital plane
View from above satellite
View from above satellite

Ground track
Ground track

The orbit data is extracted from the following two-line orbital elements,

1 39420U 13066E   18172.19224421  .00000154  00000-0  35935-4 0  9997
2 39420  97.6776 155.4833 0136392 292.6464  66.0362 14.62058627244282
Epoch (UTC): 21 June 2018 04:36:49
Eccentricity: 0.0136392
inclination: 97.6776°
perigee height: 590 km
apogee height: 783 km
right ascension of ascending node: 155.4833°
argument of perigee: 292.6464°
revolutions per day: 14.62058627
mean anomaly at epoch: 66.0362°
orbit number at epoch: 24428

The dashed part of the orbit path shows where the satellite is in the earth's shadow,  

DLR